Regional Weather Roundup
Issued by NWS Glasgow, MT

Current Version | Previous Version | Text Only | Print | Product List | Glossary On
Versions: 1 2 3 4 5 6 7 8 9 10 11 12 13 14 15 16 17 18 19 20 21 22 23 24 25 26 27 28 29 30 31 32 33 34 35 36 37 38 39 40 41 42 43 44 45 46 47 48 49 50
000
ASUS45 KGGW 111915
RWRGGW
HOURLY REGIONAL WEATHER ROUNDUP FOR NORTHEAST MONTANA
NATIONAL WEATHER SERVICE GLASGOW MONTANA
1200 PM MST THU FEB 11 2016

NOTE: "FAIR" INDICATES FEW OR NO CLOUDS BELOW 12,000 FEET WITH NO
SIGNIFICANT WEATHER AND/OR OBSTRUCTIONS TO VISISBILITY.

NORTHEAST MONTANA


CITY           SKY/WX    TMP DP  RH WIND       PRES   REMARKS
GLASGOW        CLOUDY    30  24  78 E7        30.14S
PLENTYWOOD       N/A     23  18  81 NE7G15      N/A
WOLF POINT     CLOUDY    29  21  72 E9        30.17S
JORDAN           N/A     42  33  70 NW14      30.12R
WINNETT          N/A     53  26  35 CALM        N/A
SIDNEY         CLOUDY    27  21  80 N10       30.15R
GLENDIVE       CLOUDY    28  27  93 NE8       30.13R
MALTA            N/A     34  30  86 NE3         N/A
SCOBEY           N/A     22  12  65 CALM      30.13R

FORT PECK REPORTS


CITY           SKY/WX    TMP DP  RH WIND       PRES   REMARKS
FORT PECK        N/A     30  27  88 E9          N/A
THE PINES        N/A     31  28  89 NE6         N/A

SOUTHEAST MONTANA


CITY           SKY/WX    TMP DP  RH WIND       PRES   REMARKS
BILLINGS       MOSUNNY   58  19  22 NW24G35   30.17R
MILES CITY     PTSUNNY   49  31  49 NW25G31   30.09R
BAKER          CLOUDY    34  30  85 NW17      30.06R
LIVINGSTON     SUNNY     57  20  23 W26       30.21R

CENTRAL MONTANA


CITY           SKY/WX    TMP DP  RH WIND       PRES   REMARKS
HAVRE          CLOUDY    39  32  76 W7        30.19R
LEWISTOWN      CLOUDY    50  27  40 NW12G29   30.16R
GREAT FALLS    SUNNY     56  20  24 W16G22    30.19R
CUT BANK       PTSUNNY   53  17  24 NW20G29   30.18R
HELENA           N/A    N/A N/A N/A MISG      30.25F
BUTTE          CLOUDY    45  26  47 CALM      30.29F
BOZEMAN        CLOUDY    41  27  57 NW3       30.27F

WESTERN MONTANA


CITY           SKY/WX    TMP DP  RH WIND       PRES   REMARKS
MISSOULA       PTSUNNY   41  32  70 CALM      30.31F
KALISPELL      NOT AVBL

NORTH DAKOTA


CITY           SKY/WX    TMP DP  RH WIND       PRES   REMARKS
WILLISTON      LGT SNOW  26  20  77 NE5       30.16S
DICKINSON      LGT SNOW  23  19  85 NE12      30.05R FOG
MINOT          CLOUDY    20  10  65 N5        30.17S HAZE
BISMARCK       LGT SNOW  25  18  74 NE5       30.14R

SOUTHERN SASKATCHEWAN


CITY           SKY/WX    TMP DP  RH WIND       PRES   REMARKS
REGINA         FLURRIES  18  12  79 N7        30.22R
MOOSE JAW      FLURRIES  16  12  86 N6        30.24R
ESTEVAN        FLURRIES  21  12  68 CALM      30.18S
SWIFT CURRENT  CLOUDY    19  16  86 E6        30.16R




USA.gov is the U.S. government's official web portal to all federal, state and local government web resources and services.